FENGYUN1
1 25730U 99025A   06039.98740405 -.00000079  00000-0 -20157-4 0  6463
2 25730 098.6220 037.4290 0015039 144.3589 215.8635 14.11805676347927
OKEAN-0
1 25860U 99039A   06039.65031374  .00000040  00000-0  13469-4 0 06648
2 25860 097.7421 059.9254 0001193 098.8031 261.3304 14.73335885352826
NOAA-16
1 26536U 00055A   06040.48436641 -.00000153  00000-0 -58523-4 0  7433
2 26536 099.0497 005.7144 0011111 117.5997 242.6303 14.12312902277558
NOAA-17
1 27453U 02032A   06040.83106206 -.00000043  00000-0  27067-7 0  7696
2 27453 098.6355 115.4546 0012637 087.0242 273.2393 14.23748610188650
NOAA-18
1 28654U 05018A   06040.42039981  .00000016  00000-0  32969-4 0  3551
2 28654 098.7753 346.5223 0013750 221.3374 138.6770 14.10927592 37360
HUBBLE
1 20580U 90037B   06039.68203021  .00000465  00000-0  23490-4 0  5425
2 20580 028.4656 167.5477 0003814 258.5302 101.4859 14.99961123665781
UARS
1 21701U 91063B   06040.74216423  .00004704  00000-0  98028-4 0  6846
2 21701 056.9787 281.1123 0104073 327.8327 031.6300 15.42115958789637
PO-34
1 25520U 98064B   06040.42771779  .00000670  00000-0  23580-4 0  3882
2 25520 028.4573 165.7832 0005156 285.3383 074.6643 15.16608049402631
ISS
1 25544U 98067A   06040.85138889  .00012260  00000-0  86027-4 0  3194
2 25544 051.6448 122.3522 0008835 257.3473 251.7436 15.74622749413094
OO-38
1 26063U 00004C   06040.76515479 -.00000017  00000-0  14254-4 0  5417
2 26063 100.1888 308.8784 0037254 105.8798 254.6488 14.35752982316386
NO-45
1 26932U 01043D   06039.84040534 -.00000021  00000-0  24147-4 0  2377
2 26932 067.0597 337.9517 0006831 287.3687 072.6679 14.29514850227627
UWE-1
1 28892U 05043C   06040.80257623  .00000143  00000-0  40002-4 0  3592
2 28892 098.1792 300.9914 0016814 205.9731 154.0627 14.59302341 15395
XI-V
1 28895U 05043F   06040.72996229  .00000132  00000-0  37746-4 0  3429
2 28895 098.1811 300.9566 0017392 206.1330 153.8985 14.59358071 15264
NCUBE2
1 28897U 05043H   06040.24075208  .00000143  00000-0  39811-4 0   269
2 28897 098.1775 300.4751 0016383 210.9700 149.0529 14.59511341  7464
AO-54
1 28933U 05035C   06040.63344104  .00033469  00000-0  22236-3 0   100
2 28933 051.6421 123.4588 0008164 263.2900 096.7128 15.75088058   895
